Flag for Canada Weather past 2 weeks in Shawinigan, Quebec, Canada

Now
43 °F

Quite cool.


Feels Like: 39 °F
Forecast: 32 / 52 °F
Wind: 7 mph from Northwest

Location: Shawinigan CS

Current Time: Apr 18, 2015 at 8:48:14 PM

Latest Report: Apr 18, 2015 at 8:00 PM


Visibility: N/A

Pressure: 30.05 "Hg

Humidity: 68%

Dew point: 33 °F

Location of ShawiniganLocation

Historic Weather in Shawinigan — Graph

°F

Shawinigan temperature yesterday

Maximum temperature yesterday: 67 °F (at 3:00 PM)
Minimum temperature yesterday: 36 °F (at 2:00 AM)
Average temperature yesterday: 51 °F

Past Weeks' High & Low Weather Summary

 TemperatureHumidityPressure
High67 °F (Apr 17, 3:00 PM)97% (Apr 10, 9:00 PM)30.54 "Hg (Apr 10, 9:00 PM)
Low4 °F (Apr 6, 6:00 AM)15% (Apr 15, 5:00 PM)29.39 "Hg (Apr 10, 7:00 PM)
Average38 °F51%30.06 "Hg
* Reported Apr 3 7:00 PM — Apr 18 7:00 PM, Shawinigan, Weather by CustomWeather, © 2015

Note: Actual official high and low records may vary slightly from our data, if they occured in-between our weather recording intervals... More about our weather records

Advertising

Shawinigan weather history for previous 24 hours

 ConditionsComfort  
Time TempWeatherWind HumidityBarometerVisibility
7:00 PM
Sat, Apr 18
44 °FQuite cool.5 mph69%30.02 "HgN/A
6:00 PM45 °FCool.6 mph57%29.98 "HgN/A
5:00 PM46 °FCool.3 mph48%29.96 "HgN/A
4:00 PM46 °FCool.7 mph37%29.94 "HgN/A
3:00 PM46 °FCool.3 mph38%29.93 "HgN/A
2:00 PM46 °FCool.1 mph38%29.92 "HgN/A
1:00 PM45 °FCool.2 mph41%29.93 "HgN/A
12:00 PM45 °FCool.3 mph38%29.92 "HgN/A
11:00 AM44 °FQuite cool.6 mph44%29.94 "HgN/A
10:00 AM40 °FQuite cool.2 mph52%29.97 "HgN/A
9:00 AM38 °FChilly.5 mph55%29.99 "HgN/A
8:00 AM35 °FChilly.3 mph68%29.99 "HgN/A
7:00 AM32 °FChilly.2 mph74%29.98 "HgN/A
6:00 AM30 °FChilly.1 mph85%29.98 "HgN/A
5:00 AM32 °FChilly.2 mph70%29.99 "HgN/A
4:00 AM34 °FChilly.3 mph66%29.97 "HgN/A
3:00 AM35 °FChilly.6 mph68%29.97 "HgN/A
2:00 AM37 °FChilly.8 mph59%29.98 "HgN/A
1:00 AM40 °FChilly.5 mph54%29.98 "HgN/A
12:00 AM42 °FQuite cool.7 mph45%29.95 "HgN/A
11:00 PM
Fri, Apr 17
44 °FQuite cool.7 mph39%29.93 "HgN/A
10:00 PM46 °FCool.8 mph34%29.91 "HgN/A
9:00 PM50 °FCool.8 mph32%29.89 "HgN/A
8:00 PM54 °FCool.9 mph33%29.85 "HgN/A
Weather by CustomWeather, © 2015

See weather overviewHow to use our weather pages